When you browse on this site, cookies collect data to enhance your experience and personalize the content and advertising you see.
Visit our Privacy Policy to learn more. By continuing to use the site, you agree to this use of cookies and data.
  • în România
  • Lista ţărilor
  • Pe 7 zile
  • Temperatura apei
  • Hartă satelitară
  • Meteo pe hartă
  • Widget-uri
  • user-avatar
    Intrare

    Meteo pe oră la Vypolzovo

    Astăzi, 21 Martie, Joi

    Timp Temperatura Precipitaţii Vânt Presiune Umiditate
    00:00 -2°C° 0 mm 2 m/s 764 mmHg 98%
    01:00 -2°C° 0 mm 2 m/s 763 mmHg 98%
    02:00 -2°C° 0 mm 2 m/s 763 mmHg 97%
    03:00 0°C° 0 mm 1 m/s 763 mmHg 97%
    04:00 0°C° 0 mm 1 m/s 763 mmHg 97%
    05:00 0°C° 0 mm 1 m/s 762 mmHg 97%
    06:00 0°C° 0 mm 1 m/s 762 mmHg 97%
    07:00 -2°C° 0.1 mm 2 m/s 762 mmHg 97%
    08:00 -1°C° 0.1 mm 2 m/s 762 mmHg 98%
    09:00 -1°C° 0.1 mm 2 m/s 762 mmHg 98%
    10:00 -1°C° 0.2 mm 2 m/s 762 mmHg 98%
    11:00 -1°C° 0.2 mm 2 m/s 762 mmHg 99%
    12:00 +1°C° 0.2 mm 2 m/s 761 mmHg 99%
    13:00 +1°C° 0.2 mm 2 m/s 761 mmHg 99%
    14:00 +1°C° 0.2 mm 2 m/s 761 mmHg 99%
    15:00 +1°C° 0.2 mm 2 m/s 761 mmHg 99%
    16:00 -1°C° 0.1 mm 2 m/s 761 mmHg 98%
    17:00 -1°C° 0.1 mm 2 m/s 761 mmHg 98%
    18:00 -1°C° 0.1 mm 2 m/s 760 mmHg 97%
    19:00 -1°C° 0 mm 2 m/s 760 mmHg 97%
    20:00 -1°C° 0 mm 2 m/s 760 mmHg 97%
    21:00 -1°C° 0 mm 2 m/s 760 mmHg 97%
    22:00 -1°C° 0 mm 2 m/s 760 mmHg 97%
    23:00 +1°C° 0 mm 1 m/s 760 mmHg 97%

    Mâine, 22 Martie, Vineri

    Timp Temperatura Precipitaţii Vânt Presiune Umiditate
    00:00 +1°C° 0 mm 1 m/s 760 mmHg 98%
    01:00 +1°C° 0 mm 1 m/s 760 mmHg 97%
    02:00 +1°C° 0 mm 1 m/s 760 mmHg 97%
    03:00 +1°C° 0 mm 1 m/s 760 mmHg 97%
    04:00 +1°C° 0 mm 1 m/s 760 mmHg 97%
    05:00 +1°C° 0 mm 1 m/s 760 mmHg 97%
    06:00 +1°C° 0 mm 1 m/s 759 mmHg 97%
    07:00 +1°C° 0 mm 1 m/s 759 mmHg 97%
    08:00 +2°C° 0 mm 1 m/s 759 mmHg 98%
    09:00 +2°C° 0 mm 1 m/s 760 mmHg 99%
    10:00 +2°C° 0 mm 1 m/s 759 mmHg 99%
    11:00 +3°C° 0 mm 1 m/s 759 mmHg 99%
    12:00 +3°C° 0 mm 1 m/s 759 mmHg 99%
    13:00 +3°C° 0.1 mm 1 m/s 758 mmHg 99%
    14:00 +2°C° 0.1 mm 2 m/s 758 mmHg 99%
    15:00 +2°C° 0.1 mm 2 m/s 758 mmHg 99%
    16:00 +1°C° 0.1 mm 2 m/s 757 mmHg 98%
    17:00 +1°C° 0.1 mm 2 m/s 757 mmHg 98%
    18:00 +1°C° 0.1 mm 2 m/s 757 mmHg 97%
    19:00 -1°C° 0.3 mm 2 m/s 757 mmHg 97%
    20:00 -1°C° 0.3 mm 2 m/s 757 mmHg 97%
    21:00 -1°C° 0.3 mm 2 m/s 756 mmHg 97%
    22:00 -1°C° 0.2 mm 2 m/s 756 mmHg 97%
    23:00 -1°C° 0.2 mm 2 m/s 756 mmHg 97%

    Poimâine, 23 Martie, Sâmbătă

    Timp Temperatura Precipitaţii Vânt Presiune Umiditate
    00:00 -1°C° 0.2 mm 2 m/s 756 mmHg 97%
    01:00 -1°C° 0.1 mm 2 m/s 755 mmHg 97%
    02:00 -1°C° 0.1 mm 2 m/s 755 mmHg 97%
    03:00 -2°C° 0.1 mm 2 m/s 755 mmHg 96%
    04:00 -2°C° 0.7 mm 2 m/s 755 mmHg 96%
    05:00 -2°C° 0.7 mm 2 m/s 755 mmHg 96%
    06:00 -2°C° 0.7 mm 2 m/s 755 mmHg 96%
    07:00 -1°C° 0 mm 2 m/s 755 mmHg 97%
    08:00 -1°C° 0 mm 2 m/s 756 mmHg 97%
    09:00 -1°C° 0 mm 2 m/s 756 mmHg 97%
    10:00 -1°C° 0 mm 2 m/s 756 mmHg 98%
    11:00 +1°C° 0 mm 2 m/s 756 mmHg 98%
    12:00 +2°C° 0 mm 1 m/s 756 mmHg 99%
    13:00 +2°C° 0 mm 1 m/s 757 mmHg 98%
    14:00 +1°C° 0 mm 2 m/s 757 mmHg 98%
    15:00 +1°C° 0 mm 2 m/s 757 mmHg 97%
    16:00 -1°C° 0 mm 2 m/s 757 mmHg 96%
    17:00 -1°C° 0 mm 2 m/s 758 mmHg 95%
    18:00 0°C° 0 mm 1 m/s 758 mmHg 95%
    19:00 -1°C° 0 mm 1 m/s 758 mmHg 94%
    20:00 -1°C° 0 mm 1 m/s 758 mmHg 93%
    21:00 -1°C° 0 mm 1 m/s 759 mmHg 92%
    22:00 -1°C° 0 mm 1 m/s 759 mmHg 92%
    23:00 -4°C° 0 mm 2 m/s 759 mmHg 91%

    24 Martie, Duminică

    Timp Temperatura Precipitaţii Vânt Presiune Umiditate
    00:00 -4°C° 0 mm 2 m/s 759 mmHg 91%
    01:00 -3°C° 0.1 mm 2 m/s 759 mmHg 91%
    02:00 -3°C° 0.1 mm 2 m/s 759 mmHg 91%
    03:00 -4°C° 0.1 mm 3 m/s 759 mmHg 91%
    04:00 -4°C° 0.1 mm 3 m/s 759 mmHg 92%
    05:00 -2°C° 0.1 mm 3 m/s 758 mmHg 92%
    06:00 -2°C° 0.1 mm 3 m/s 758 mmHg 93%
    07:00 -2°C° 0 mm 3 m/s 758 mmHg 93%
    08:00 -1°C° 0 mm 3 m/s 758 mmHg 93%
    09:00 0°C° 0 mm 3 m/s 758 mmHg 93%
    10:00 0°C° 0 mm 3 m/s 758 mmHg 95%
    11:00 0°C° 0 mm 3 m/s 758 mmHg 96%
    12:00 +1°C° 0 mm 3 m/s 758 mmHg 97%
    13:00 +1°C° 0.1 mm 3 m/s 757 mmHg 97%
    14:00 +1°C° 0.1 mm 3 m/s 757 mmHg 97%
    15:00 +1°C° 0.1 mm 3 m/s 757 mmHg 96%
    16:00 0°C° 0.1 mm 3 m/s 757 mmHg 95%
    17:00 0°C° 0.1 mm 3 m/s 756 mmHg 95%
    18:00 -1°C° 0.1 mm 3 m/s 756 mmHg 94%
    19:00 -1°C° 0 mm 3 m/s 756 mmHg 93%
    20:00 -1°C° 0 mm 3 m/s 756 mmHg 92%
    21:00 -2°C° 0 mm 3 m/s 756 mmHg 92%
    22:00 -2°C° 0 mm 3 m/s 755 mmHg 92%
    23:00 -2°C° 0 mm 3 m/s 755 mmHg 93%

    25 Martie, Luni

    Timp Temperatura Precipitaţii Vânt Presiune Umiditate
    00:00 -2°C° 0 mm 3 m/s 754 mmHg 93%
    01:00 -3°C° 0 mm 2 m/s 754 mmHg 94%
    02:00 -3°C° 0 mm 2 m/s 754 mmHg 94%
    03:00 -3°C° 0 mm 2 m/s 753 mmHg 95%
    04:00 -3°C° 0 mm 2 m/s 753 mmHg 95%
    05:00 -3°C° 0 mm 2 m/s 752 mmHg 94%
    06:00 -3°C° 0 mm 2 m/s 752 mmHg 94%
    07:00 -2°C° 0.2 mm 3 m/s 752 mmHg 93%
    08:00 -1°C° 0.2 mm 3 m/s 752 mmHg 93%
    09:00 -1°C° 0.2 mm 3 m/s 751 mmHg 93%
    10:00 -1°C° 0.1 mm 4 m/s 751 mmHg 89%
    11:00 -1°C° 0.1 mm 5 m/s 751 mmHg 85%
    12:00 -1°C° 0.1 mm 6 m/s 751 mmHg 81%
    13:00 -1°C° 0 mm 6 m/s 752 mmHg 78%
    14:00 -1°C° 0 mm 6 m/s 752 mmHg 76%
    15:00 0°C° 0 mm 5 m/s 752 mmHg 73%
    16:00 -1°C° 0 mm 4 m/s 752 mmHg 75%
    17:00 0°C° 0 mm 3 m/s 753 mmHg 77%
    18:00 -1°C° 0 mm 2 m/s 753 mmHg 78%
    19:00 -1°C° 0.2 mm 3 m/s 753 mmHg 81%
    20:00 -1°C° 0.2 mm 3 m/s 754 mmHg 83%
    21:00 -2°C° 0.2 mm 4 m/s 754 mmHg 86%
    22:00 -2°C° 0 mm 4 m/s 754 mmHg 82%
    23:00 -3°C° 0 mm 4 m/s 755 mmHg 79%

    26 Martie, Marţi

    Timp Temperatura Precipitaţii Vânt Presiune Umiditate
    00:00 -4°C° 0 mm 5 m/s 755 mmHg 75%
    01:00 -4°C° 0 mm 5 m/s 756 mmHg 75%
    02:00 -4°C° 0 mm 4 m/s 757 mmHg 75%
    03:00 -4°C° 0 mm 4 m/s 757 mmHg 74%
    04:00 -4°C° 0 mm 4 m/s 758 mmHg 75%
    05:00 -4°C° 0 mm 4 m/s 758 mmHg 76%
    06:00 -5°C° 0 mm 3 m/s 759 mmHg 77%
    07:00 -4°C° 0 mm 4 m/s 759 mmHg 74%
    08:00 -3°C° 0 mm 4 m/s 760 mmHg 70%
    09:00 -2°C° 0 mm 4 m/s 760 mmHg 66%
    10:00 -1°C° 0 mm 4 m/s 760 mmHg 63%
    11:00 0°C° 0 mm 4 m/s 761 mmHg 60%
    12:00 0°C° 0 mm 4 m/s 761 mmHg 56%
    13:00 0°C° 0 mm 4 m/s 761 mmHg 57%
    14:00 0°C° 0 mm 4 m/s 761 mmHg 58%
    15:00 0°C° 0 mm 4 m/s 761 mmHg 58%
    16:00 -1°C° 0 mm 4 m/s 761 mmHg 65%
    17:00 -1°C° 0 mm 4 m/s 761 mmHg 72%
    18:00 -1°C° 0 mm 3 m/s 761 mmHg 79%
    19:00 -2°C° 0 mm 4 m/s 761 mmHg 79%
    20:00 -2°C° 0 mm 4 m/s 761 mmHg 79%
    21:00 -2°C° 0 mm 4 m/s 761 mmHg 79%
    22:00 -2°C° 0.1 mm 5 m/s 760 mmHg 77%
    23:00 -1°C° 0.1 mm 5 m/s 760 mmHg 75%
    Arată mai mult